timestamp,wind_dir_avg,wind_spd_avg,wind_spd_max_dir,wind_spd_gust,battery_voltage,lat,long
2021-09-10 00:04:01+00:00,216.0,6.03,215.0,7.0,12.65,47.59359,-54.27349
2021-09-10 00:14:01+00:00,212.0,5.74,215.0,6.42,12.65,47.59359,-54.27349
2021-09-10 00:24:01+00:00,218.0,6.63,220.0,7.22,12.65,47.59359,-54.27349
2021-09-10 00:34:01+00:00,215.0,6.58,218.0,7.88,12.65,47.59359,-54.27349
2021-09-10 00:44:01+00:00,227.0,6.63,233.0,7.99,12.65,47.59359,-54.27349
2021-09-10 00:54:01+00:00,230.0,7.27,231.0,8.33,12.65,47.59359,-54.27349
2021-09-10 01:04:01+00:00,232.0,7.45,231.0,8.71,12.65,47.59359,-54.27349
2021-09-10 01:14:00+00:00,226.0,6.53,228.0,7.42,12.65,47.59359,-54.27349
2021-09-10 01:24:00+00:00,231.0,6.23,233.0,6.87,12.65,47.59359,-54.27349
2021-09-10 01:34:00+00:00,221.0,4.41,221.0,5.06,12.65,47.59359,-54.27349
2021-09-10 01:44:00+00:00,222.0,7.32,223.0,8.5,12.65,47.59359,-54.27349
2021-09-10 01:54:00+00:00,229.0,5.84,220.0,7.01,12.65,47.59359,-54.27349
2021-09-10 02:04:00+00:00,233.0,7.65,239.0,8.83,12.65,47.59359,-54.27349
2021-09-10 02:14:01+00:00,231.0,7.29,234.0,8.24,12.65,47.59359,-54.27349
2021-09-10 02:24:01+00:00,226.0,6.77,230.0,7.46,12.65,47.59359,-54.27349
2021-09-10 02:34:01+00:00,220.0,7.51,221.0,8.0,12.65,47.59359,-54.27349
2021-09-10 02:44:01+00:00,221.0,6.86,222.0,7.51,12.65,47.59359,-54.27349
2021-09-10 02:54:01+00:00,209.0,6.11,212.0,6.8,12.65,47.59359,-54.27349
2021-09-10 03:04:01+00:00,210.0,4.87,209.0,5.37,12.65,47.59359,-54.27349
2021-09-10 03:14:01+00:00,219.0,5.58,224.0,6.6,12.65,47.59359,-54.27349
2021-09-10 03:24:01+00:00,203.0,3.44,207.0,4.01,12.65,47.59359,-54.27349
2021-09-10 03:34:01+00:00,205.0,4.57,210.0,5.11,12.65,47.59359,-54.27349
2021-09-10 03:44:01+00:00,201.0,4.77,205.0,5.38,12.65,47.59359,-54.27349
2021-09-10 03:54:01+00:00,214.0,4.56,221.0,5.29,12.65,47.59359,-54.27349
2021-09-10 04:04:01+00:00,212.0,6.81,216.0,7.84,12.65,47.59359,-54.27349
2021-09-10 04:14:01+00:00,213.0,5.99,215.0,6.42,12.57,47.59359,-54.27349
2021-09-10 04:24:01+00:00,215.0,5.12,220.0,5.75,12.57,47.59359,-54.27349
2021-09-10 04:34:01+00:00,208.0,5.18,208.0,5.47,12.57,47.59359,-54.27349
2021-09-10 04:44:01+00:00,203.0,4.01,204.0,4.5,12.57,47.59359,-54.27349
2021-09-10 04:54:01+00:00,219.0,4.62,221.0,5.16,12.57,47.59359,-54.27349
2021-09-10 05:04:01+00:00,222.0,4.45,218.0,5.06,12.57,47.59359,-54.27349
2021-09-10 05:14:01+00:00,213.0,4.97,215.0,5.53,12.57,47.59359,-54.27349
2021-09-10 05:24:01+00:00,203.0,5.39,206.0,5.87,12.57,47.59359,-54.27349
2021-09-10 05:34:01+00:00,212.0,6.43,212.0,6.98,12.57,47.59359,-54.27349
2021-09-10 05:44:01+00:00,218.0,8.29,217.0,9.22,12.57,47.59359,-54.27349
2021-09-10 05:54:01+00:00,215.0,8.55,211.0,9.31,12.57,47.59359,-54.27349
2021-09-10 06:04:01+00:00,213.0,8.66,215.0,9.82,12.57,47.59359,-54.27349
2021-09-10 06:14:01+00:00,206.0,8.66,211.0,9.42,12.57,47.59359,-54.27349
2021-09-10 06:24:01+00:00,210.0,7.38,213.0,9.27,12.57,47.59359,-54.27349
2021-09-10 06:34:01+00:00,216.0,8.56,219.0,9.84,12.57,47.59359,-54.27349
2021-09-10 06:44:01+00:00,211.0,9.04,222.0,10.49,12.57,47.59359,-54.27349
2021-09-10 06:54:01+00:00,208.0,8.28,214.0,9.65,12.57,47.59359,-54.27349
2021-09-10 07:04:01+00:00,202.0,8.03,205.0,9.3,12.57,47.59359,-54.27349
2021-09-10 07:14:01+00:00,211.0,8.85,209.0,10.28,12.57,47.59359,-54.27349
2021-09-10 07:24:01+00:00,204.0,8.07,205.0,9.12,12.57,47.59359,-54.27349
2021-09-10 07:34:01+00:00,208.0,7.57,209.0,8.26,12.57,47.59359,-54.27349
2021-09-10 07:44:01+00:00,214.0,7.48,215.0,8.69,12.57,47.59359,-54.27349
2021-09-10 07:54:01+00:00,208.0,6.99,206.0,8.08,12.57,47.59359,-54.27349
2021-09-10 08:04:01+00:00,216.0,6.97,216.0,7.96,12.57,47.59359,-54.27349
2021-09-10 08:14:01+00:00,215.0,7.81,216.0,8.74,12.49,47.59359,-54.27349
2021-09-10 08:24:01+00:00,207.0,8.27,206.0,9.07,12.49,47.59359,-54.27349
2021-09-10 08:34:01+00:00,207.0,9.41,206.0,10.43,12.49,47.59359,-54.27349
2021-09-10 08:44:01+00:00,205.0,9.77,200.0,11.5,12.49,47.59359,-54.27349
2021-09-10 08:54:01+00:00,203.0,9.6,208.0,11.15,12.49,47.59359,-54.27349
2021-09-10 09:04:01+00:00,197.0,10.69,200.0,11.6,12.49,47.59359,-54.27349
2021-09-10 09:14:01+00:00,201.0,10.06,204.0,11.15,12.41,47.59359,-54.27349
2021-09-10 09:24:01+00:00,206.0,8.55,206.0,9.79,12.41,47.59359,-54.27349
2021-09-10 09:34:01+00:00,204.0,9.21,205.0,10.98,12.41,47.59359,-54.27349
2021-09-10 09:44:01+00:00,211.0,8.8,212.0,9.62,12.41,47.59359,-54.27349
2021-09-10 09:54:01+00:00,216.0,6.55,219.0,7.23,12.41,47.59359,-54.27349
2021-09-10 10:04:01+00:00,214.0,5.64,218.0,6.14,12.41,47.59359,-54.27349
2021-09-10 10:14:01+00:00,199.0,7.42,205.0,8.57,13.29,47.59359,-54.27349
2021-09-10 10:24:01+00:00,198.0,8.16,199.0,8.91,13.29,47.59359,-54.27349
2021-09-10 10:34:01+00:00,197.0,8.48,196.0,9.24,13.29,47.59359,-54.27349
2021-09-10 10:44:01+00:00,198.0,8.45,198.0,9.34,13.29,47.59359,-54.27349
2021-09-10 10:54:01+00:00,195.0,7.78,193.0,9.09,13.29,47.59359,-54.27349
2021-09-10 11:04:01+00:00,194.0,8.28,197.0,9.3,13.29,47.59359,-54.27349
2021-09-10 11:14:01+00:00,194.0,6.73,195.0,7.33,13.92,47.59359,-54.27349
2021-09-10 11:24:01+00:00,191.0,7.71,193.0,8.55,13.92,47.59359,-54.27349
2021-09-10 11:34:01+00:00,193.0,8.59,195.0,9.95,13.92,47.59359,-54.27349
2021-09-10 11:44:01+00:00,192.0,8.68,193.0,9.81,13.92,47.59359,-54.27349
2021-09-10 11:54:01+00:00,200.0,7.42,205.0,8.22,13.92,47.59359,-54.27349
2021-09-10 12:04:01+00:00,189.0,6.56,195.0,8.1,13.92,47.59359,-54.27349
2021-09-10 12:14:00+00:00,190.0,6.87,186.0,8.07,13.92,47.59359,-54.27349
2021-09-10 12:24:00+00:00,195.0,7.84,195.0,8.27,13.92,47.59359,-54.27349
2021-09-10 12:34:00+00:00,204.0,7.18,209.0,8.13,13.92,47.59359,-54.27349
2021-09-10 12:44:00+00:00,205.0,9.57,205.0,10.72,13.92,47.59359,-54.27349
2021-09-10 12:54:00+00:00,203.0,10.18,203.0,11.58,13.92,47.59359,-54.27349
2021-09-10 13:04:00+00:00,200.0,10.48,201.0,11.85,13.92,47.59359,-54.27349
2021-09-10 13:14:01+00:00,200.0,10.72,197.0,12.44,14.24,47.59359,-54.27349
2021-09-10 13:24:01+00:00,203.0,10.06,197.0,11.16,14.24,47.59359,-54.27349
2021-09-10 13:34:01+00:00,200.0,10.81,196.0,12.35,14.24,47.59359,-54.27349
2021-09-10 13:44:01+00:00,194.0,10.26,197.0,11.91,14.24,47.59359,-54.27349
2021-09-10 13:54:01+00:00,196.0,11.2,195.0,13.19,14.24,47.59359,-54.27349
2021-09-10 14:04:01+00:00,192.0,10.51,184.0,11.94,14.24,47.59359,-54.27349
2021-09-10 14:14:01+00:00,198.0,9.73,197.0,10.87,14.0,47.59359,-54.27349
2021-09-10 14:24:01+00:00,200.0,9.15,196.0,10.55,14.0,47.59359,-54.27349
2021-09-10 14:34:01+00:00,208.0,8.9,208.0,10.16,14.0,47.59359,-54.27349
2021-09-10 14:44:01+00:00,202.0,8.25,198.0,9.03,14.0,47.59359,-54.27349
2021-09-10 14:54:01+00:00,201.0,7.27,196.0,9.28,14.0,47.59359,-54.27349
2021-09-10 15:04:01+00:00,210.0,7.93,207.0,9.38,14.0,47.59359,-54.27349
2021-09-10 15:14:01+00:00,204.0,9.96,197.0,11.9,14.08,47.59359,-54.27349
2021-09-10 15:24:01+00:00,204.0,9.91,206.0,11.15,14.08,47.59359,-54.27349
2021-09-10 15:34:01+00:00,205.0,10.06,206.0,11.05,14.08,47.59359,-54.27349
2021-09-10 15:44:01+00:00,201.0,10.4,200.0,11.41,14.08,47.59359,-54.27349
2021-09-10 15:54:01+00:00,205.0,9.15,201.0,10.77,14.08,47.59359,-54.27349
2021-09-10 16:04:01+00:00,198.0,9.63,202.0,10.69,14.08,47.59359,-54.27349
2021-09-10 16:14:01+00:00,202.0,10.3,199.0,11.28,14.0,47.59359,-54.27349
2021-09-10 16:24:01+00:00,202.0,10.2,202.0,11.66,14.0,47.59359,-54.27349
2021-09-10 16:34:01+00:00,199.0,12.09,197.0,13.58,14.0,47.59359,-54.27349
2021-09-10 16:44:01+00:00,196.0,10.78,200.0,12.24,14.0,47.59359,-54.27349
2021-09-10 16:54:01+00:00,199.0,10.86,200.0,13.01,14.0,47.59359,-54.27349
2021-09-10 17:04:01+00:00,198.0,11.77,196.0,13.0,14.0,47.59359,-54.27349
2021-09-10 17:14:01+00:00,196.0,12.36,200.0,13.41,13.92,47.59359,-54.27349
2021-09-10 17:24:01+00:00,196.0,10.59,192.0,12.12,13.92,47.59359,-54.27349
2021-09-10 17:34:01+00:00,195.0,10.98,197.0,12.34,13.92,47.59359,-54.27349
2021-09-10 17:44:01+00:00,192.0,10.95,195.0,13.2,13.92,47.59359,-54.27349
2021-09-10 17:54:01+00:00,201.0,10.71,201.0,12.27,13.92,47.59359,-54.27349
2021-09-10 18:04:01+00:00,204.0,10.67,207.0,12.03,13.92,47.59359,-54.27349
2021-09-10 18:14:01+00:00,201.0,11.52,200.0,13.31,13.76,47.59359,-54.27349
2021-09-10 18:24:01+00:00,201.0,11.39,198.0,12.75,13.76,47.59359,-54.27349
2021-09-10 18:34:01+00:00,196.0,11.21,193.0,13.28,13.76,47.59359,-54.27349
2021-09-10 18:44:01+00:00,194.0,11.51,190.0,12.77,13.76,47.59359,-54.27349
2021-09-10 18:54:01+00:00,189.0,10.13,186.0,11.24,13.76,47.59359,-54.27349
2021-09-10 19:04:01+00:00,184.0,11.48,187.0,13.25,13.76,47.59359,-54.27349
2021-09-10 19:14:01+00:00,183.0,11.63,184.0,13.16,13.68,47.59359,-54.27349
2021-09-10 19:24:01+00:00,183.0,11.62,185.0,13.66,13.68,47.59359,-54.27349
2021-09-10 19:34:01+00:00,182.0,12.14,184.0,13.39,13.68,47.59359,-54.27349
2021-09-10 19:44:01+00:00,177.0,11.97,179.0,13.69,13.68,47.59359,-54.27349
2021-09-10 19:54:01+00:00,174.0,11.95,157.0,14.1,13.68,47.59359,-54.27349
2021-09-10 20:04:01+00:00,181.0,11.52,179.0,12.83,13.68,47.59359,-54.27349
2021-09-10 20:14:01+00:00,176.0,11.23,161.0,12.96,13.29,47.59359,-54.27349
2021-09-10 20:24:01+00:00,176.0,9.78,171.0,10.87,13.29,47.59359,-54.27349
2021-09-10 20:34:01+00:00,177.0,9.36,183.0,10.45,13.29,47.59359,-54.27349
2021-09-10 20:44:01+00:00,174.0,10.48,176.0,11.83,13.29,47.59359,-54.27349
2021-09-10 20:54:01+00:00,170.0,9.11,173.0,10.49,13.29,47.59359,-54.27349
2021-09-10 21:04:01+00:00,172.0,8.71,175.0,9.33,13.29,47.59359,-54.27349
2021-09-10 21:14:01+00:00,172.0,8.25,176.0,9.64,13.05,47.59359,-54.27349
2021-09-10 21:24:01+00:00,168.0,8.61,173.0,10.41,13.05,47.59359,-54.27349
2021-09-10 21:34:01+00:00,161.0,7.76,161.0,9.23,13.05,47.59359,-54.27349
2021-09-10 21:44:01+00:00,156.0,6.02,156.0,6.41,13.05,47.59359,-54.27349
2021-09-10 21:54:01+00:00,153.0,6.43,156.0,6.8,13.05,47.59359,-54.27349
2021-09-10 22:04:01+00:00,153.0,8.07,163.0,9.49,13.05,47.59359,-54.27349
2021-09-10 22:14:01+00:00,144.0,7.44,148.0,8.18,12.65,47.59359,-54.27349
2021-09-10 22:24:01+00:00,143.0,7.57,145.0,8.42,12.65,47.59359,-54.27349
2021-09-10 22:34:01+00:00,150.0,7.92,152.0,8.81,12.65,47.59359,-54.27349
2021-09-10 22:44:01+00:00,143.0,6.48,143.0,7.41,12.65,47.59359,-54.27349
2021-09-10 22:54:01+00:00,148.0,6.85,148.0,8.09,12.65,47.59359,-54.27349
2021-09-10 23:04:01+00:00,146.0,6.24,156.0,8.68,12.65,47.59359,-54.27349
2021-09-10 23:14:01+00:00,162.0,6.74,164.0,8.11,12.65,47.59359,-54.27349
2021-09-10 23:24:01+00:00,152.0,5.62,145.0,7.37,12.65,47.59359,-54.27349
2021-09-10 23:34:01+00:00,132.0,4.96,136.0,6.25,12.65,47.59359,-54.27349
2021-09-10 23:44:01+00:00,139.0,7.24,145.0,8.21,12.65,47.59359,-54.27349
2021-09-10 23:54:01+00:00,138.0,7.78,142.0,10.49,12.65,47.59359,-54.27349
